Location: ????????
(37.9452°N, 23.1472°E)
Time: 11:58:02
(UTC+00:00)

Hubble Space Telescope - Pass Details

Date: 18 April 2024
Orbit: 512 x 516 km, 28.5° (Epoch: 19 May)

Event Time Altitude Azimuth Distance (km) Brightness Sun altitude
Rises 17:49:45 0° 252° (WSW) 2,604 5.2 -8.9°
Reaches altitude 10° 17:52:44 10° 229° (SW) 1,717 3.7 -9.5°
Maximum altitude 17:55:03 15° 193° (SSW) 1,430 2.8 -9.9°
Drops below altitude 10° 17:57:21 10° 157° (SSE) 1,715 2.9 -10.3°
Enters shadow 17:57:49 - 152° (SSE) 1,830 3.0 -10.4°
